Location: Coopersdale
(40.3556°N, 78.9372°W)
Time: 08:49:17
(UTC+00:00)

Envisat - Pass Details

Date: 02 December 2020
Orbit: 764 x 766 km, 98.1° (Epoch: 15 January)

Event Time Altitude Azimuth Distance (km) Brightness Sun altitude
Rises 11:22:36 0° 10° (N) 3,241 6.1 -11.0°
Reaches altitude 10° 11:24:55 10° 8° (N) 2,310 5.4 -10.5°
Maximum altitude 11:29:59 72° 286° (WNW) 806 2.9 -9.6°
Drops below altitude 10° 11:35:01 10° 202° (SSW) 2,293 5.5 -8.7°
Sets 11:37:19 0° 200° (SSW) 3,215 6.3 -8.3°
